TimeMST,TemperatureF,Dew PointF,Humidity,Sea Level PressureIn,VisibilityMPH,Wind Direction,Wind SpeedMPH,Gust SpeedMPH,PrecipitationIn,Events,Conditions,WindDirDegrees,DateUTC
12:53 AM,52.0,15.1,23,30.15,10.0,East,10.4,-,N/A,,Clear,90,2013-01-18 07:53:00
1:53 AM,51.1,15.1,24,30.15,10.0,ESE,9.2,-,N/A,,Clear,110,2013-01-18 08:53:00
2:53 AM,50.0,15.1,25,30.14,10.0,ESE,9.2,-,N/A,,Clear,110,2013-01-18 09:53:00
3:53 AM,43.0,16.0,34,30.15,10.0,SE,5.8,-,N/A,,Clear,140,2013-01-18 10:53:00
4:53 AM,43.0,15.1,32,30.14,10.0,SE,3.5,-,N/A,,Clear,130,2013-01-18 11:53:00
5:53 AM,42.1,16.0,35,30.16,10.0,SE,9.2,-,N/A,,Clear,130,2013-01-18 12:53:00
6:53 AM,42.1,15.1,34,30.17,10.0,ESE,4.6,-,N/A,,Clear,120,2013-01-18 13:53:00
7:53 AM,46.0,15.1,29,30.17,10.0,ESE,4.6,-,N/A,,Clear,110,2013-01-18 14:53:00
8:53 AM,48.9,17.1,28,30.19,10.0,SSE,5.8,-,N/A,,Clear,160,2013-01-18 15:53:00
9:53 AM,55.9,16.0,21,30.20,10.0,SSE,11.5,-,N/A,,Clear,150,2013-01-18 16:53:00
10:53 AM,62.1,16.0,17,30.18,10.0,ESE,12.7,-,N/A,,Clear,120,2013-01-18 17:53:00
11:53 AM,66.9,15.1,14,30.14,10.0,ESE,12.7,-,N/A,,Clear,120,2013-01-18 18:53:00
12:53 PM,69.1,15.1,13,30.09,10.0,SE,10.4,-,N/A,,Clear,130,2013-01-18 19:53:00
1:53 PM,72.0,12.9,10,30.06,10.0,SE,6.9,-,N/A,,Clear,140,2013-01-18 20:53:00
2:53 PM,73.9,8.1,8,30.05,10.0,Calm,Calm,-,N/A,,Clear,0,2013-01-18 21:53:00
3:53 PM,73.9,6.1,7,30.04,10.0,Calm,Calm,-,N/A,,Clear,0,2013-01-18 22:53:00
4:53 PM,73.0,5.0,7,30.05,10.0,Calm,Calm,-,N/A,,Clear,0,2013-01-18 23:53:00
5:53 PM,66.0,14.0,13,30.08,10.0,NW,5.8,-,N/A,,Clear,320,2013-01-19 00:53:00
6:53 PM,60.1,18.0,20,30.11,10.0,Calm,Calm,-,N/A,,Clear,0,2013-01-19 01:53:00
7:53 PM,55.9,21.0,26,30.12,10.0,WSW,3.5,-,N/A,,Clear,240,2013-01-19 02:53:00
8:53 PM,50.0,21.0,32,30.13,10.0,SSE,6.9,-,N/A,,Clear,150,2013-01-19 03:53:00
9:53 PM,51.1,19.9,29,30.12,10.0,SE,8.1,-,N/A,,Clear,130,2013-01-19 04:53:00
10:53 PM,46.0,19.0,34,30.12,10.0,SSE,5.8,-,N/A,,Clear,160,2013-01-19 05:53:00
11:53 PM,44.1,18.0,35,30.12,10.0,SSE,6.9,-,N/A,,Clear,160,2013-01-19 06:53:00